Theta_e
333 332 330 330 329 327 325 324 323 323 323 323 324 324 323 323 322 323 324 324 323 320 318 321 325 326 326 326 325 326 326 326 326 326 326 326 326 327 327 327 328 328
331 331 329 328 327 326 325 324 323 323 323 323 324 324 322 322 322 323 325 324 322 319 317 319 323 325 324 323 322 323 325 325 325 325 324 325 324 325 325 325 326 327
330 329 328 326 326 325 324 324 324 323 323 323 324 323 322 322 321 323 324 323 321 319 317 318 321 323 323 322 319 319 322 322 321 321 320 321 322 322 323 324 324 325
329 328 326 325 324 324 324 324 324 323 323 323 324 323 323 322 321 322 324 323 321 319 318 318 318 320 322 322 317 316 318 318 317 316 316 318 319 321 323 324 324 324
328 327 325 324 324 324 324 325 324 323 323 323 323 323 323 321 321 322 323 323 321 319 318 318 317 317 320 320 316 315 316 315 314 314 314 315 315 318 322 324 325 325
326 325 325 325 324 324 324 324 323 323 323 323 323 323 322 321 320 320 321 322 321 319 318 317 316 317 319 319 315 314 314 314 314 313 313 313 312 313 317 322 325 324
325 325 325 325 324 324 324 323 323 323 323 322 322 322 322 321 320 320 319 320 320 319 317 315 314 316 318 317 314 314 314 313 313 313 313 313 312 312 313 318 322 323
324 324 325 325 324 324 323 323 323 323 323 322 320 320 321 320 319 319 318 319 319 318 316 314 312 315 317 316 314 314 314 313 313 313 313 312 312 312 312 314 318 321
324 324 324 324 323 323 323 323 324 323 323 322 320 320 320 320 319 318 318 318 318 316 315 314 313 313 315 315 314 314 314 313 313 313 313 312 312 312 312 312 314 317
323 322 323 323 322 322 323 324 324 323 323 322 320 319 319 319 318 317 317 317 317 316 315 314 313 313 314 315 314 314 314 313 313 313 313 313 313 312 313 313 313 314
322 322 322 322 322 322 323 324 323 323 323 322 320 319 319 318 318 317 317 317 316 315 314 313 314 314 314 314 313 313 314 313 313 313 313 313 313 313 312 312 312 312
321 321 322 321 322 323 323 323 323 323 323 322 320 319 317 316 316 316 317 317 316 315 314 313 313 313 314 314 313 312 313 314 314 313 313 313 313 313 313 313 312 312
321 321 322 322 322 323 322 322 323 322 322 321 320 318 316 314 314 315 316 316 316 315 314 313 313 313 314 314 314 313 313 314 314 314 313 313 313 313 313 314 314 313
321 321 321 322 322 322 322 322 321 320 320 319 318 317 315 314 314 314 314 315 315 315 315 314 313 313 314 314 314 314 314 314 314 314 313 313 313 313 313 313 314 315
321 321 321 320 320 320 320 320 319 318 317 317 316 315 314 314 314 314 314 314 314 315 315 315 314 314 314 314 314 314 314 314 315 314 313 313 313 313 313 313 314 314
320 320 320 320 320 319 319 318 318 318 317 318 318 317 315 314 314 314 315 315 315 315 315 315 314 314 314 315 315 315 315 315 315 315 314 313 313 314 314 314 314 315
320 320 319 319 318 318 319 318 317 318 318 318 319 318 316 316 316 315 316 316 315 315 315 315 314 314 315 315 315 315 315 316 316 316 316 315 314 314 315 316 316 316
319 319 318 318 317 317 317 316 316 316 317 317 318 317 316 316 317 316 316 316 316 316 316 316 315 315 315 316 316 315 316 316 316 317 317 316 316 315 315 317 318 318
318 318 318 318 318 317 316 316 316 317 317 318 319 318 317 317 318 318 318 317 317 316 316 316 317 316 317 317 316 316 316 316 316 317 317 317 317 317 317 317 318 318
317 317 318 318 318 318 317 317 317 318 318 319 319 319 319 319 319 319 319 319 318 318 318 317 317 317 317 317 317 317 317 317 317 316 317 317 317 317 317 317 317 317
315 316 316 316 316 317 317 316 316 316 317 317 318 318 318 318 319 319 319 319 319 319 319 318 318 318 319 319 318 318 318 318 317 317 317 317 317 317 318 318 318 318
309 310 311 312 312 313 312 310 311 311 311 312 313 314 313 313 314 314 314 314 314 315 315 314 314 315 317 318 319 319 319 319 319 318 318 318 318 318 318 318 319 319
304 305 306 307 308 308 306 305 305 305 305 306 308 308 308 308 307 307 307 307 308 308 308 308 308 309 311 314 316 317 318 319 319 319 319 319 319 319 319 319 319 319
301 302 302 303 303 303 303 303 303 303 303 303 304 305 305 304 304 304 304 304 305 306 305 304 304 304 306 308 309 311 312 314 315 316 317 318 318 318 318 318 319 319
299 299 300 300 300 299 300 300 300 300 301 301 302 302 302 302 303 303 303 303 304 305 305 305 304 302 303 304 305 307 308 309 310 311 312 313 314 315 316 316 317 317
298 298 298 298 298 298 298 298 298 298 299 299 299 299 300 300 300 300 301 301 301 301 302 303 302 301 301 302 302 303 304 305 306 307 308 309 310 311 313 314 314 315
Wind_Speed
21 22 22 23 23 23 23 22 19 18 16 16 15 13 11 10 9 9 9 9 7 7 6 5 6 5 5 5 5 4 4 4 4 4 4 4 5 5 5 6 7 7
22 23 23 23 24 24 23 21 19 17 16 16 14 13 12 10 10 10 10 10 9 7 6 6 6 6 6 7 6 6 6 6 6 6 5 5 4 4 4 5 7 7
23 24 24 23 23 23 23 21 18 16 15 14 14 13 12 11 11 11 12 11 10 8 7 6 6 6 6 6 6 6 7 7 7 7 5 5 4 3 3 4 6 8
24 25 24 23 22 23 22 20 18 16 14 13 12 12 12 11 11 12 12 11 10 9 7 6 5 5 6 6 6 7 8 9 9 8 7 7 6 4 5 6 7 8
24 25 24 23 22 22 21 20 18 16 14 13 12 12 12 12 12 13 13 12 11 10 8 6 5 5 7 6 6 8 10 10 10 9 8 8 7 6 6 8 9 11
25 25 24 23 22 21 21 19 17 16 14 13 12 12 12 12 12 12 12 12 11 10 9 6 5 6 7 7 7 9 10 10 9 8 7 7 7 6 7 8 10 12
24 24 24 23 22 21 19 18 16 15 14 13 12 12 13 12 12 11 11 12 12 11 9 6 6 7 8 7 8 10 9 9 8 6 5 5 6 6 7 7 9 11
23 23 23 23 22 21 19 17 16 14 13 12 12 13 13 12 11 10 11 12 12 11 9 7 7 8 8 8 8 9 8 7 5 4 3 4 5 6 7 7 7 9
22 23 23 22 21 21 19 17 15 14 13 12 12 12 13 12 10 10 12 12 12 11 9 8 7 8 9 8 8 8 7 5 4 5 5 5 6 6 7 7 6 7
23 23 23 21 20 20 19 17 15 14 13 12 11 11 12 11 10 10 12 12 11 10 8 7 7 8 8 8 8 7 5 4 5 6 6 6 7 6 6 6 6 5
23 23 22 20 20 19 18 16 15 15 13 12 11 11 11 11 10 10 11 12 11 9 7 7 7 7 7 7 7 7 5 5 5 5 5 6 6 6 6 5 5 4
22 22 21 21 20 19 18 16 15 15 14 13 11 11 11 11 11 11 11 10 9 8 7 7 7 7 7 7 7 7 6 5 5 4 4 4 5 4 4 4 4 4
19 20 19 19 19 18 17 15 14 14 14 13 12 11 11 11 11 11 10 9 8 7 6 6 7 8 8 7 7 7 7 5 4 4 4 4 4 3 3 3 3 3
16 17 17 17 17 16 15 13 12 12 11 11 11 11 11 11 10 8 8 8 8 7 6 6 7 8 8 7 7 7 6 5 4 5 6 6 5 3 3 3 3 3
15 16 17 16 16 15 14 13 12 11 10 9 8 9 10 10 9 7 6 7 8 7 6 6 6 7 7 7 6 6 6 5 4 5 6 7 6 5 5 5 5 5
18 19 18 17 17 17 16 15 14 11 10 7 5 6 8 7 7 6 5 5 6 6 7 6 6 6 6 6 7 7 6 6 6 6 6 7 8 8 7 7 7 7
18 18 17 15 15 14 14 13 9 6 8 7 3 4 6 3 2 4 4 4 4 5 6 7 7 8 8 8 9 8 8 8 8 8 8 9 10 10 9 8 8 8
15 15 13 11 10 8 8 10 12 10 9 9 5 4 5 1 1 2 3 4 6 6 7 8 9 10 11 11 11 10 11 11 11 11 11 11 11 11 11 10 9 9
14 14 13 12 11 10 10 12 13 11 8 8 7 6 6 3 0 2 3 4 6 6 6 7 8 10 11 11 12 13 13 14 15 14 14 14 14 14 14 13 13 12
16 16 17 17 16 16 16 14 12 11 10 10 10 9 8 6 4 3 4 4 4 4 4 5 5 6 8 9 10 11 12 13 14 15 16 16 17 17 17 17 16 16
21 21 21 20 19 18 17 16 14 13 13 12 12 11 11 10 8 7 7 6 6 6 5 4 2 2 4 6 7 7 8 9 10 11 12 13 15 15 16 16 15 15
25 25 24 22 20 20 19 18 16 15 14 14 14 14 14 13 11 10 10 10 9 9 7 6 4 2 1 3 5 6 7 8 8 9 10 11 12 12 12 12 12 12
26 26 25 23 22 22 21 20 19 18 18 17 17 16 15 15 14 14 13 13 13 12 11 10 9 8 5 3 3 4 6 7 9 9 10 11 11 12 12 13 13 13
25 25 25 24 23 22 21 19 18 17 17 16 16 16 16 15 14 12 12 11 11 11 10 11 11 11 9 7 6 4 4 5 6 7 8 10 10 11 12 12 13 14
23 23 23 22 22 21 20 18 17 16 14 13 13 13 13 12 10 9 9 9 8 7 6 6 8 10 9 8 7 7 6 6 6 6 7 8 9 11 11 12 12 13
20 20 19 19 18 17 16 15 14 13 12 11 11 11 10 9 9 8 8 7 6 5 4 4 4 6 8 8 8 8 8 8 8 8 9 9 10 12 12 13 14 13
Wind_Direction
183 185 186 185 185 182 178 175 171 169 165 162 162 158 158 157 156 165 171 165 150 131 113 109 120 122 115 109 104 111 118 122 135 141 145 149 154 171 187 194 195 189
184 185 186 185 184 182 179 175 170 168 165 163 164 162 159 154 152 160 166 163 151 131 112 107 115 112 107 103 98 106 114 115 121 124 130 136 142 162 174 185 195 192
185 186 186 185 182 181 179 175 172 170 167 166 168 167 163 155 151 157 163 162 152 139 123 113 115 111 108 106 104 117 127 129 127 124 128 132 137 155 160 167 179 180
187 188 186 184 181 180 179 177 174 172 170 172 174 173 169 160 155 159 164 164 156 148 137 126 120 115 116 113 110 126 134 130 122 114 112 112 115 128 136 142 154 159
190 190 187 185 182 181 180 178 174 170 170 174 177 178 174 165 160 162 167 169 163 154 145 137 130 127 129 124 123 134 133 123 115 109 103 98 98 105 117 128 136 142
192 191 188 185 183 183 181 176 172 169 168 170 173 178 178 169 163 163 168 171 167 157 148 144 144 144 142 136 138 141 135 125 119 113 106 96 90 86 97 119 132 135
193 191 188 186 186 185 181 175 171 169 167 166 167 175 178 172 166 164 168 170 165 157 149 143 147 152 151 148 150 150 141 133 127 118 112 105 92 80 84 111 131 134
191 190 189 187 186 184 179 174 172 171 168 163 163 171 176 175 169 167 169 167 163 158 151 145 147 155 159 157 156 155 148 138 131 122 128 130 112 88 81 95 123 135
187 187 187 186 184 182 179 175 175 174 171 168 166 168 172 173 170 169 168 165 160 156 153 153 153 157 164 167 163 159 153 143 131 125 126 131 121 101 85 80 98 124
183 184 184 184 183 180 177 176 179 178 175 174 170 168 171 171 170 171 172 166 159 155 157 163 165 163 167 173 175 170 158 144 135 125 117 116 115 109 99 85 82 96
183 182 182 184 181 176 176 179 183 183 182 181 176 171 170 170 169 174 176 169 160 155 158 167 173 173 172 172 178 181 171 151 141 133 123 120 117 111 108 103 99 98
180 180 182 182 178 175 177 182 186 188 187 185 182 176 170 169 169 172 176 172 162 155 157 165 171 171 168 164 168 175 172 159 150 144 139 138 131 116 107 104 112 124
175 177 180 178 175 175 179 183 186 188 190 188 184 177 170 167 168 171 177 176 166 160 163 167 167 165 164 162 165 170 170 168 173 175 168 160 152 142 131 112 113 133
171 169 170 167 167 168 169 173 174 175 180 180 177 177 174 169 168 174 181 179 169 167 172 176 174 172 171 170 174 178 180 184 193 195 192 187 183 183 182 179 179 179
157 150 149 148 147 148 150 152 152 155 159 154 155 167 171 171 173 173 176 177 172 172 180 184 182 183 184 185 188 195 202 211 215 214 215 215 214 217 217 215 217 218
141 136 135 133 133 136 133 125 121 129 147 145 127 142 156 166 178 177 172 175 181 188 197 201 203 204 206 207 208 215 224 232 238 239 236 235 234 235 236 232 231 232
140 139 137 131 132 133 127 126 129 140 159 166 148 135 146 138 164 189 188 194 203 207 207 211 221 227 228 230 230 231 236 241 248 253 250 248 248 249 250 247 242 243
138 142 140 134 134 134 138 167 194 202 188 185 191 193 182 136 8 262 239 239 239 236 228 228 236 240 242 245 245 244 245 247 252 257 260 263 264 264 266 266 262 260
132 135 133 128 130 137 147 168 184 185 177 172 167 171 171 155 257 273 255 244 242 240 237 236 242 246 248 250 251 251 252 253 255 259 261 264 267 269 271 271 272 272
125 123 119 117 120 129 137 145 151 146 143 144 141 137 131 127 137 150 154 172 182 179 187 201 215 230 237 241 246 249 251 252 255 258 260 261 263 265 267 269 271 273
114 115 113 112 115 120 123 125 124 122 123 126 126 120 115 118 122 119 119 120 118 125 135 138 154 206 224 230 235 241 245 247 249 252 255 258 259 261 264 268 270 272
103 108 109 109 110 110 108 105 105 105 106 108 111 110 107 107 105 100 99 98 95 97 97 84 65 37 304 257 252 253 254 255 256 256 257 258 260 261 263 266 269 273
93 97 100 101 102 101 97 94 95 95 93 94 100 103 101 98 94 89 87 88 87 84 76 64 51 39 27 3 320 288 276 272 270 271 273 273 273 273 271 271 270 270
89 90 92 93 93 92 91 90 90 89 86 87 90 93 93 92 91 87 81 77 77 74 65 52 41 32 27 24 16 358 336 314 296 290 287 284 283 282 279 277 275 271
85 85 87 88 88 88 88 88 88 86 86 85 85 87 87 84 83 82 73 65 61 56 47 34 23 14 11 14 13 8 1 351 336 321 307 296 290 285 280 277 275 272
80 80 82 83 83 84 85 86 86 85 84 83 83 86 88 88 87 86 80 73 65 54 40 24 3 352 352 354 354 353 351 346 341 333 322 313 305 298 292 287 281 278